Location: Kershaw
(34.5481°N, 80.5823°W)
Time: 13:15:26
(UTC+00:00)

Courier 1B Rocket - Visible Passes

Search period start: 28 September 2022 00:00
Search period end: 08 October 2022 00:00
Orbit: 920 x 1202 km, 28.2° (Epoch: 27 September)

Date Brightness Start Highest point End Pass type
(mag) Time Alt. Az. Time Alt. Az. Time Alt. Az.
28 Sep 6.3 01:09:06 10° SSW 01:12:41 22° S 01:12:41 22° S visible
29 Sep 6.5 00:09:02 10° SSW 00:13:12 18° SSE 00:15:39 14° SE visible
29 Sep 6.8 02:00:11 10° SW 02:02:01 19° SW 02:02:01 19° SW visible
30 Sep 5.8 00:59:30 10° SW 01:04:57 31° SSE 01:04:57 31° SSE visible
30 Sep 6.2 23:58:59 10° SSW 00:04:13 25° SSE 00:07:50 15° ESE visible
01 Oct 6.4 01:51:04 10° WSW 01:54:11 27° SW 01:54:11 27° SW visible
02 Oct 5.5 00:50:10 10° SW 00:56:12 39° SSE 00:57:01 37° SSE visible
02 Oct 7.5 02:43:06 10° WSW 02:43:23 11° WSW 02:43:23 11° WSW visible
02 Oct 6.0 23:49:22 10° SW 23:55:17 33° SSE 23:59:48 15° ESE visible
03 Oct 6.0 01:42:03 10° WSW 01:46:10 35° SW 01:46:10 35° SW visible
04 Oct 5.4 00:41:00 10° WSW 00:47:19 45° S 00:48:55 38° SE visible
04 Oct 7.3 02:34:15 10° WSW 02:35:17 15° WSW 02:35:17 15° WSW visible
04 Oct 5.8 23:39:59 10° SW 23:46:22 40° SSE 23:51:38 13° ESE visible
05 Oct 5.7 01:33:06 10° WSW 01:38:00 42° SW 01:38:00 42° SW visible
06 Oct 5.4 00:31:56 10° WSW 00:38:28 49° S 00:40:42 35° SE visible
06 Oct 7.1 02:25:27 10° W 02:27:04 18° WSW 02:27:04 18° WSW visible
06 Oct 5.7 23:30:47 10° WSW 23:37:28 47° S 23:43:24 11° ESE visible
07 Oct 5.6 01:24:11 10° WSW 01:29:46 45° SSW 01:29:46 45° SSW visible
